Year,Month,Day,Hour,Minute,Value (Times are PST for windspeed in km/hr)
2008,02,05,00,00,0.40
2008,02,05,00,01,0.00
2008,02,05,00,02,0.10
2008,02,05,00,03,1.00
2008,02,05,00,04,1.10
2008,02,05,00,05,1.70
2008,02,05,00,06,1.70
2008,02,05,00,07,0.60
2008,02,05,00,08,1.20
2008,02,05,00,09,1.90
2008,02,05,00,10,2.10
2008,02,05,00,11,1.90
2008,02,05,00,12,2.80
2008,02,05,00,13,2.50
2008,02,05,00,14,3.40
2008,02,05,00,15,0.90
2008,02,05,00,16,1.80
2008,02,05,00,17,0.40
2008,02,05,00,18,0.10
2008,02,05,00,19,0.20
2008,02,05,00,20,0.60
2008,02,05,00,21,0.00
2008,02,05,00,22,0.00
2008,02,05,00,23,0.00
2008,02,05,00,24,0.00
2008,02,05,00,25,0.00
2008,02,05,00,26,0.00
2008,02,05,00,27,0.00
2008,02,05,00,28,0.00
2008,02,05,00,29,0.00
2008,02,05,00,30,0.30
2008,02,05,00,31,0.00
2008,02,05,00,32,0.10
2008,02,05,00,33,0.10
2008,02,05,00,34,0.00
2008,02,05,00,35,1.10
2008,02,05,00,36,0.90
2008,02,05,00,37,0.00
2008,02,05,00,38,0.10
2008,02,05,00,39,0.00
2008,02,05,00,40,0.00
2008,02,05,00,41,0.70
2008,02,05,00,42,1.20
2008,02,05,00,43,0.00
2008,02,05,00,44,1.10
2008,02,05,00,45,0.10
2008,02,05,00,46,0.80
2008,02,05,00,47,1.40
2008,02,05,00,48,0.30
2008,02,05,00,49,0.00
2008,02,05,00,50,0.30
2008,02,05,00,51,2.00
2008,02,05,00,52,0.40
2008,02,05,00,53,0.10
2008,02,05,00,54,0.50
2008,02,05,00,55,0.00
2008,02,05,00,56,0.00
2008,02,05,00,57,0.00
2008,02,05,00,58,0.40
2008,02,05,00,59,1.30
2008,02,05,01,00,1.00
2008,02,05,01,01,0.00
2008,02,05,01,02,0.10
2008,02,05,01,03,0.00
2008,02,05,01,04,0.00
2008,02,05,01,05,0.00
2008,02,05,01,06,0.10
2008,02,05,01,07,0.00
2008,02,05,01,08,0.00
2008,02,05,01,09,0.00
2008,02,05,01,10,0.30
2008,02,05,01,11,2.00
2008,02,05,01,12,0.40
2008,02,05,01,13,1.10
2008,02,05,01,14,1.90
2008,02,05,01,15,0.10
2008,02,05,01,16,0.00
2008,02,05,01,17,1.00
2008,02,05,01,18,1.90
2008,02,05,01,19,2.50
2008,02,05,01,20,1.80
2008,02,05,01,21,0.30
2008,02,05,01,22,0.20
2008,02,05,01,23,0.50
2008,02,05,01,24,0.90
2008,02,05,01,25,0.70
2008,02,05,01,26,0.00
2008,02,05,01,27,0.00
2008,02,05,01,28,0.00
2008,02,05,01,29,0.00
2008,02,05,01,30,0.00
2008,02,05,01,31,0.00
2008,02,05,01,32,0.00
2008,02,05,01,33,1.20
2008,02,05,01,34,1.90
2008,02,05,01,35,3.50
2008,02,05,01,36,0.10
2008,02,05,01,37,0.40
2008,02,05,01,38,1.00
2008,02,05,01,39,0.90
2008,02,05,01,40,0.80
2008,02,05,01,41,0.00
2008,02,05,01,42,0.30
2008,02,05,01,43,0.90
2008,02,05,01,44,0.50
2008,02,05,01,45,1.30
2008,02,05,01,46,0.00
2008,02,05,01,47,0.60
2008,02,05,01,48,0.30
2008,02,05,01,49,2.10
2008,02,05,01,50,2.40
2008,02,05,01,51,0.40
2008,02,05,01,52,0.90
2008,02,05,01,53,0.00
2008,02,05,01,54,0.00
2008,02,05,01,55,0.10
2008,02,05,01,56,0.00
2008,02,05,01,57,0.60
2008,02,05,01,58,0.10
2008,02,05,01,59,0.00
2008,02,05,02,00,0.20
2008,02,05,02,01,2.00
2008,02,05,02,02,5.60
2008,02,05,02,03,4.40
2008,02,05,02,04,1.00
2008,02,05,02,05,2.00
2008,02,05,02,06,4.70
2008,02,05,02,07,3.10
2008,02,05,02,08,1.90
2008,02,05,02,09,1.10
2008,02,05,02,10,0.00
2008,02,05,02,11,0.00
2008,02,05,02,12,0.10
2008,02,05,02,13,0.00
2008,02,05,02,14,0.80
2008,02,05,02,15,0.00
2008,02,05,02,16,1.20
2008,02,05,02,17,1.00
2008,02,05,02,18,0.00
2008,02,05,02,19,1.50
2008,02,05,02,20,3.00
2008,02,05,02,21,3.70
2008,02,05,02,22,2.30
2008,02,05,02,23,0.00
2008,02,05,02,24,0.00
2008,02,05,02,25,0.00
2008,02,05,02,26,0.90
2008,02,05,02,27,1.80
2008,02,05,02,28,0.00
2008,02,05,02,29,0.00
2008,02,05,02,30,0.30
2008,02,05,02,31,1.90
2008,02,05,02,32,1.00
2008,02,05,02,33,0.00
2008,02,05,02,34,1.60
2008,02,05,02,35,1.70
2008,02,05,02,36,2.20
2008,02,05,02,37,0.30
2008,02,05,02,38,2.50
2008,02,05,02,39,4.30
2008,02,05,02,40,2.60
2008,02,05,02,41,2.40
2008,02,05,02,42,0.00
2008,02,05,02,43,0.00
2008,02,05,02,44,0.10
2008,02,05,02,45,0.00
2008,02,05,02,46,0.00
2008,02,05,02,47,1.20
2008,02,05,02,48,0.50
2008,02,05,02,49,0.10
2008,02,05,02,50,0.00
2008,02,05,02,51,0.00
2008,02,05,02,52,0.00
2008,02,05,02,53,0.00
2008,02,05,02,54,1.20
2008,02,05,02,55,1.00
2008,02,05,02,56,0.00
2008,02,05,02,57,0.00
2008,02,05,02,58,0.90
2008,02,05,02,59,2.90
2008,02,05,03,00,2.90
2008,02,05,03,01,3.20
2008,02,05,03,02,1.70
2008,02,05,03,03,0.70
2008,02,05,03,04,1.00
2008,02,05,03,05,0.20
2008,02,05,03,06,3.40
2008,02,05,03,07,2.10
2008,02,05,03,08,1.10
2008,02,05,03,09,0.50
2008,02,05,03,10,0.40
2008,02,05,03,11,2.80
2008,02,05,03,12,1.40
2008,02,05,03,13,2.10
2008,02,05,03,14,1.20
2008,02,05,03,15,0.10
2008,02,05,03,16,0.40
2008,02,05,03,17,0.40
2008,02,05,03,18,2.80
2008,02,05,03,19,0.40
2008,02,05,03,20,0.00
2008,02,05,03,21,0.00
2008,02,05,03,22,0.00
2008,02,05,03,23,0.00
2008,02,05,03,24,0.00
2008,02,05,03,25,0.30
2008,02,05,03,26,0.20
2008,02,05,03,27,0.00
2008,02,05,03,28,0.00
2008,02,05,03,29,0.00
2008,02,05,03,30,0.00
2008,02,05,03,31,0.20
2008,02,05,03,32,0.00
2008,02,05,03,33,0.00
2008,02,05,03,34,2.70
2008,02,05,03,35,2.60
2008,02,05,03,36,1.70
2008,02,05,03,37,0.90
2008,02,05,03,38,0.10
2008,02,05,03,39,0.60
2008,02,05,03,40,1.40
2008,02,05,03,41,1.10
2008,02,05,03,42,1.20
2008,02,05,03,43,1.00
2008,02,05,03,44,0.80
2008,02,05,03,45,0.60
2008,02,05,03,46,0.20
2008,02,05,03,47,0.00
2008,02,05,03,48,0.40
2008,02,05,03,49,0.90
2008,02,05,03,50,1.80
2008,02,05,03,51,0.20
2008,02,05,03,52,0.10
2008,02,05,03,53,0.10
2008,02,05,03,54,0.00
2008,02,05,03,55,0.10
2008,02,05,03,56,0.10
2008,02,05,03,57,0.00
2008,02,05,03,58,0.00
2008,02,05,03,59,0.00
2008,02,05,04,00,0.00
2008,02,05,04,01,0.00
2008,02,05,04,02,0.50
2008,02,05,04,03,0.30
2008,02,05,04,04,0.10
2008,02,05,04,05,0.80
2008,02,05,04,06,0.60
2008,02,05,04,07,0.20
2008,02,05,04,08,0.00
2008,02,05,04,09,1.00
2008,02,05,04,10,1.00
2008,02,05,04,11,0.60
2008,02,05,04,12,0.00
2008,02,05,04,13,0.40
2008,02,05,04,14,0.80
2008,02,05,04,15,0.40
2008,02,05,04,16,0.00
2008,02,05,04,17,0.00
2008,02,05,04,18,0.00
2008,02,05,04,19,0.20
2008,02,05,04,20,0.00
2008,02,05,04,21,0.00
2008,02,05,04,22,0.00
2008,02,05,04,23,0.10
2008,02,05,04,24,0.00
2008,02,05,04,25,1.20
2008,02,05,04,26,0.00
2008,02,05,04,27,0.00
2008,02,05,04,28,0.00
2008,02,05,04,29,0.00
2008,02,05,04,30,0.00
2008,02,05,04,31,0.10
2008,02,05,04,32,0.00
2008,02,05,04,33,0.00
2008,02,05,04,34,0.30
2008,02,05,04,35,0.40
2008,02,05,04,36,0.10
2008,02,05,04,37,0.00
2008,02,05,04,38,0.00
2008,02,05,04,39,0.00
2008,02,05,04,40,0.00
2008,02,05,04,41,0.00
2008,02,05,04,42,0.00
2008,02,05,04,43,0.00
2008,02,05,04,44,0.00
2008,02,05,04,45,0.00
2008,02,05,04,46,0.00
2008,02,05,04,47,0.10
2008,02,05,04,48,0.00
2008,02,05,04,49,0.00
2008,02,05,04,50,0.00
2008,02,05,04,51,0.00
2008,02,05,04,52,0.00
2008,02,05,04,53,0.00
2008,02,05,04,54,0.00
2008,02,05,04,55,0.00
2008,02,05,04,56,0.10
2008,02,05,04,57,1.10
2008,02,05,04,58,3.30
2008,02,05,04,59,2.20
2008,02,05,05,00,0.90
2008,02,05,05,01,2.60
2008,02,05,05,02,1.30
2008,02,05,05,03,3.10
2008,02,05,05,04,1.10
2008,02,05,05,05,0.00
2008,02,05,05,06,0.80
2008,02,05,05,07,1.60
2008,02,05,05,08,0.00
2008,02,05,05,09,0.90
2008,02,05,05,10,0.10
2008,02,05,05,11,0.00
2008,02,05,05,12,0.00
2008,02,05,05,13,0.00
2008,02,05,05,14,0.00
2008,02,05,05,15,0.10
2008,02,05,05,16,0.40
2008,02,05,05,17,0.00
2008,02,05,05,18,0.00
2008,02,05,05,19,0.00
2008,02,05,05,20,0.00
2008,02,05,05,21,0.10
2008,02,05,05,22,0.20
2008,02,05,05,23,1.80
2008,02,05,05,24,1.90
2008,02,05,05,25,3.00
2008,02,05,05,26,5.40
2008,02,05,05,27,4.20
2008,02,05,05,28,4.60
2008,02,05,05,29,2.70
2008,02,05,05,30,4.30
2008,02,05,05,31,1.90
2008,02,05,05,32,1.00
2008,02,05,05,33,0.50
2008,02,05,05,34,1.00
2008,02,05,05,35,0.00
2008,02,05,05,36,0.00
2008,02,05,05,37,0.00
2008,02,05,05,38,0.00
2008,02,05,05,39,0.00
2008,02,05,05,40,0.00
2008,02,05,05,41,0.00
2008,02,05,05,42,0.00
2008,02,05,05,43,0.20
2008,02,05,05,44,0.10
2008,02,05,05,45,0.00
2008,02,05,05,46,0.10
2008,02,05,05,47,0.00
2008,02,05,05,48,0.00
2008,02,05,05,49,0.00
2008,02,05,05,50,0.00
2008,02,05,05,51,0.00
2008,02,05,05,52,0.00
2008,02,05,05,53,0.00
2008,02,05,05,54,0.00
2008,02,05,05,55,0.00
2008,02,05,05,56,0.00
2008,02,05,05,57,0.00
2008,02,05,05,58,0.00
2008,02,05,05,59,0.00
2008,02,05,06,00,0.00
2008,02,05,06,01,1.50
2008,02,05,06,02,1.30
2008,02,05,06,03,0.20
2008,02,05,06,04,2.30
2008,02,05,06,05,0.10
2008,02,05,06,06,0.50
2008,02,05,06,07,0.00
2008,02,05,06,08,0.00
2008,02,05,06,09,0.00
2008,02,05,06,10,0.00
2008,02,05,06,11,0.00
2008,02,05,06,12,0.00
2008,02,05,06,13,0.00
2008,02,05,06,14,0.00
2008,02,05,06,15,0.00
2008,02,05,06,16,0.40
2008,02,05,06,17,0.00
2008,02,05,06,18,0.00
2008,02,05,06,19,0.00
2008,02,05,06,20,0.00
2008,02,05,06,21,0.20
2008,02,05,06,22,0.40
2008,02,05,06,23,0.20
2008,02,05,06,24,0.00
2008,02,05,06,25,0.00
2008,02,05,06,26,0.00
2008,02,05,06,27,0.20
2008,02,05,06,28,0.00
2008,02,05,06,29,0.20
2008,02,05,06,30,0.00
2008,02,05,06,31,0.50
2008,02,05,06,32,1.30
2008,02,05,06,33,0.10
2008,02,05,06,34,0.90
2008,02,05,06,35,0.60
2008,02,05,06,36,0.20
2008,02,05,06,37,0.00
2008,02,05,06,38,0.00
2008,02,05,06,39,0.00
2008,02,05,06,40,0.00
2008,02,05,06,41,0.00
2008,02,05,06,42,0.00
2008,02,05,06,43,0.20
2008,02,05,06,44,0.60
2008,02,05,06,45,1.00
2008,02,05,06,46,0.50
2008,02,05,06,47,0.00
2008,02,05,06,48,0.00
2008,02,05,06,49,0.00
2008,02,05,06,50,0.00
2008,02,05,06,51,0.00
2008,02,05,06,52,0.00
2008,02,05,06,53,0.00
2008,02,05,06,54,0.00
2008,02,05,06,55,0.00
2008,02,05,06,56,0.50
2008,02,05,06,57,0.40
2008,02,05,06,58,0.00
2008,02,05,06,59,0.10
2008,02,05,07,00,0.00
2008,02,05,07,01,0.00
2008,02,05,07,02,0.00
2008,02,05,07,03,1.00
2008,02,05,07,04,0.20
2008,02,05,07,05,0.00
2008,02,05,07,06,0.00
2008,02,05,07,07,0.00
2008,02,05,07,08,0.30
2008,02,05,07,09,2.10
2008,02,05,07,10,2.10
2008,02,05,07,11,1.10
2008,02,05,07,12,0.00
2008,02,05,07,13,0.00
2008,02,05,07,14,0.30
2008,02,05,07,15,1.30
2008,02,05,07,16,1.70
2008,02,05,07,17,3.00
2008,02,05,07,18,3.90
2008,02,05,07,19,5.20
2008,02,05,07,20,5.90
2008,02,05,07,21,4.40
2008,02,05,07,22,1.70
2008,02,05,07,23,2.60
2008,02,05,07,24,3.00
2008,02,05,07,25,0.30
2008,02,05,07,26,2.60
2008,02,05,07,27,1.00
2008,02,05,07,28,3.30
2008,02,05,07,29,2.70
2008,02,05,07,30,0.40
2008,02,05,07,31,0.90
2008,02,05,07,32,0.90
2008,02,05,07,33,3.70
2008,02,05,07,34,2.20
2008,02,05,07,35,3.20
2008,02,05,07,36,3.30
2008,02,05,07,37,4.00
2008,02,05,07,38,3.50
2008,02,05,07,39,0.80
2008,02,05,07,40,2.40
2008,02,05,07,41,2.10
2008,02,05,07,42,2.90
2008,02,05,07,43,2.80
2008,02,05,07,44,2.40
2008,02,05,07,45,3.40
2008,02,05,07,46,3.40
2008,02,05,07,47,3.90
2008,02,05,07,48,2.90
2008,02,05,07,49,2.30
2008,02,05,07,50,1.90
2008,02,05,07,51,2.10
2008,02,05,07,52,0.10
2008,02,05,07,53,1.00
2008,02,05,07,54,2.20
2008,02,05,07,55,0.80
2008,02,05,07,56,0.00
2008,02,05,07,57,0.00
2008,02,05,07,58,1.40
2008,02,05,07,59,1.20
2008,02,05,08,00,1.00
2008,02,05,08,01,1.80
2008,02,05,08,02,2.90
2008,02,05,08,03,4.50
2008,02,05,08,04,6.30
2008,02,05,08,05,6.20
2008,02,05,08,06,5.60
2008,02,05,08,07,3.20
2008,02,05,08,08,3.30
2008,02,05,08,09,1.50
2008,02,05,08,10,1.40
2008,02,05,08,11,1.00
2008,02,05,08,12,1.90
2008,02,05,08,13,2.30
2008,02,05,08,14,4.10
2008,02,05,08,15,2.50
2008,02,05,08,16,2.10
2008,02,05,08,17,0.80
2008,02,05,08,18,0.00
2008,02,05,08,19,0.00
2008,02,05,08,20,0.00
2008,02,05,08,21,0.00
2008,02,05,08,22,0.00
2008,02,05,08,23,0.00
2008,02,05,08,24,0.00
2008,02,05,08,25,0.40
2008,02,05,08,26,2.40
2008,02,05,08,27,1.00
2008,02,05,08,28,1.20
2008,02,05,08,29,0.20
2008,02,05,08,30,0.70
2008,02,05,08,31,2.60
2008,02,05,08,32,2.20
2008,02,05,08,33,1.00
2008,02,05,08,34,2.10
2008,02,05,08,35,1.40
2008,02,05,08,36,1.50
2008,02,05,08,37,0.10
2008,02,05,08,38,0.00
2008,02,05,08,39,0.00
2008,02,05,08,40,0.50
2008,02,05,08,41,0.50
2008,02,05,08,42,0.10
2008,02,05,08,43,0.10
2008,02,05,08,44,0.00
2008,02,05,08,45,0.00
2008,02,05,08,46,0.00
2008,02,05,08,47,2.10
2008,02,05,08,48,3.30
2008,02,05,08,49,1.30
2008,02,05,08,50,2.00
2008,02,05,08,51,0.20
2008,02,05,08,52,0.50
2008,02,05,08,53,4.00
2008,02,05,08,54,2.80
2008,02,05,08,55,2.80
2008,02,05,08,56,2.90
2008,02,05,08,57,4.10
2008,02,05,08,58,3.80
2008,02,05,08,59,5.90
2008,02,05,09,00,2.70
2008,02,05,09,01,3.20
2008,02,05,09,02,2.50
2008,02,05,09,03,2.30
2008,02,05,09,04,3.60
2008,02,05,09,05,1.60
2008,02,05,09,06,0.40
2008,02,05,09,07,0.00
2008,02,05,09,08,0.00
2008,02,05,09,09,0.00
2008,02,05,09,10,0.00
2008,02,05,09,11,0.00
2008,02,05,09,12,0.00
2008,02,05,09,13,0.10
2008,02,05,09,14,0.70
2008,02,05,09,15,0.00
2008,02,05,09,16,0.10
2008,02,05,09,17,0.10
2008,02,05,09,18,0.40
2008,02,05,09,19,0.10
2008,02,05,09,20,0.50
2008,02,05,09,21,0.70
2008,02,05,09,22,0.40
2008,02,05,09,23,2.00
2008,02,05,09,24,0.10
2008,02,05,09,25,0.10
2008,02,05,09,26,0.30
2008,02,05,09,27,0.00
2008,02,05,09,28,0.00
2008,02,05,09,29,0.40
2008,02,05,09,30,0.70
2008,02,05,09,31,0.20
2008,02,05,09,32,0.10
2008,02,05,09,33,0.00
2008,02,05,09,34,0.00
2008,02,05,09,35,4.40
2008,02,05,09,36,4.90
2008,02,05,09,37,3.60
2008,02,05,09,38,3.80
2008,02,05,09,39,3.60
2008,02,05,09,40,1.90
2008,02,05,09,41,1.00
2008,02,05,09,42,0.00
2008,02,05,09,43,0.00
2008,02,05,09,44,1.40
2008,02,05,09,45,2.90
2008,02,05,09,46,0.10
2008,02,05,09,47,0.00
2008,02,05,09,48,0.00
2008,02,05,09,49,1.50
2008,02,05,09,50,2.10
2008,02,05,09,51,1.80
2008,02,05,09,52,4.60
2008,02,05,09,53,4.30
2008,02,05,09,54,4.30
2008,02,05,09,55,1.80
2008,02,05,09,56,1.30
2008,02,05,09,57,0.90
2008,02,05,09,58,0.00
2008,02,05,09,59,0.00
2008,02,05,10,00,0.30
2008,02,05,10,01,2.20
2008,02,05,10,02,0.30
2008,02,05,10,03,0.00
2008,02,05,10,04,0.00
2008,02,05,10,05,0.00
2008,02,05,10,06,0.00
2008,02,05,10,07,0.20
2008,02,05,10,08,0.60
2008,02,05,10,09,1.40
2008,02,05,10,10,1.30
2008,02,05,10,11,0.10
2008,02,05,10,12,3.40
2008,02,05,10,13,2.80
2008,02,05,10,14,0.20
2008,02,05,10,15,1.10
2008,02,05,10,16,1.30
2008,02,05,10,17,0.00
2008,02,05,10,18,1.10
2008,02,05,10,19,0.70
2008,02,05,10,20,0.50
2008,02,05,10,21,0.00
2008,02,05,10,22,0.20
2008,02,05,10,23,2.60
2008,02,05,10,24,2.70
2008,02,05,10,25,3.30
2008,02,05,10,26,4.50
2008,02,05,10,27,6.10
2008,02,05,10,28,6.20
2008,02,05,10,29,6.90
2008,02,05,10,30,10.70
2008,02,05,10,31,7.80
2008,02,05,10,32,5.10
2008,02,05,10,33,9.30
2008,02,05,10,34,29.20
2008,02,05,10,35,31.10
2008,02,05,10,36,22.20
2008,02,05,10,37,18.90
2008,02,05,10,38,30.90
2008,02,05,10,39,26.10
2008,02,05,10,40,30.40
2008,02,05,10,41,23.10
2008,02,05,10,42,18.70
2008,02,05,10,43,17.60
2008,02,05,10,44,23.70
2008,02,05,10,45,10.80
2008,02,05,10,46,8.40
2008,02,05,10,47,9.20
2008,02,05,10,48,15.40
2008,02,05,10,49,11.00
2008,02,05,10,50,18.40
2008,02,05,10,51,23.30
2008,02,05,10,52,19.70
2008,02,05,10,53,8.10
2008,02,05,10,54,12.30
2008,02,05,10,55,18.20
2008,02,05,10,56,11.90
2008,02,05,10,57,9.20
2008,02,05,10,58,18.40
2008,02,05,10,59,12.10
2008,02,05,11,00,7.60
2008,02,05,11,01,12.10
2008,02,05,11,02,10.50
2008,02,05,11,03,11.30
2008,02,05,11,04,13.00
2008,02,05,11,05,9.80
2008,02,05,11,06,7.40
2008,02,05,11,07,16.00
2008,02,05,11,08,8.50
2008,02,05,11,09,8.10
2008,02,05,11,10,8.00
2008,02,05,11,11,9.90
2008,02,05,11,12,9.50
2008,02,05,11,13,11.20
2008,02,05,11,14,4.30
2008,02,05,11,15,9.50
2008,02,05,11,16,14.30
2008,02,05,11,17,10.60
2008,02,05,11,18,24.30
2008,02,05,11,19,18.30
2008,02,05,11,20,13.30
2008,02,05,11,21,12.00
2008,02,05,11,22,8.40
2008,02,05,11,23,7.20
2008,02,05,11,24,8.20
2008,02,05,11,25,11.90
2008,02,05,11,26,9.30
2008,02,05,11,27,7.10
2008,02,05,11,28,9.40
2008,02,05,11,29,8.50
2008,02,05,11,30,11.60
2008,02,05,11,31,7.90
2008,02,05,11,32,5.70
2008,02,05,11,33,9.20
2008,02,05,11,34,5.80
2008,02,05,11,35,10.40
2008,02,05,11,36,12.30
2008,02,05,11,37,25.80
2008,02,05,11,38,21.70
2008,02,05,11,39,30.60
2008,02,05,11,40,26.20
2008,02,05,11,41,17.20
2008,02,05,11,42,15.70
2008,02,05,11,43,28.40
2008,02,05,11,44,22.20
2008,02,05,11,45,21.40
2008,02,05,11,46,22.50
2008,02,05,11,47,22.90
2008,02,05,11,48,25.30
2008,02,05,11,49,29.50
2008,02,05,11,50,28.00
2008,02,05,11,51,18.70
2008,02,05,11,52,23.40
2008,02,05,11,53,27.90
2008,02,05,11,54,24.30
2008,02,05,11,55,14.30
2008,02,05,11,56,14.70
2008,02,05,11,57,18.80
2008,02,05,11,58,21.50
2008,02,05,11,59,14.30
2008,02,05,12,00,26.00
2008,02,05,12,01,18.80
2008,02,05,12,02,14.10
2008,02,05,12,03,15.40
2008,02,05,12,04,18.60
2008,02,05,12,05,23.10
2008,02,05,12,06,23.70
2008,02,05,12,07,13.50
2008,02,05,12,08,12.10
2008,02,05,12,09,20.20
2008,02,05,12,10,17.90
2008,02,05,12,11,15.80
2008,02,05,12,12,21.20
2008,02,05,12,13,16.50
2008,02,05,12,14,24.10
2008,02,05,12,15,13.40
2008,02,05,12,16,13.00
2008,02,05,12,17,11.70
2008,02,05,12,18,16.60
2008,02,05,12,19,24.00
2008,02,05,12,20,17.10
2008,02,05,12,21,20.70
2008,02,05,12,22,18.50
2008,02,05,12,23,16.30
2008,02,05,12,24,11.80
2008,02,05,12,25,9.40
2008,02,05,12,26,19.30
2008,02,05,12,27,21.10
2008,02,05,12,28,22.20
2008,02,05,12,29,28.60
2008,02,05,12,30,25.10
2008,02,05,12,31,15.10
2008,02,05,12,32,20.40
2008,02,05,12,33,34.00
2008,02,05,12,34,32.10
2008,02,05,12,35,18.50
2008,02,05,12,36,23.80
2008,02,05,12,37,22.60
2008,02,05,12,38,16.00
2008,02,05,12,39,12.60
2008,02,05,12,40,13.00
2008,02,05,12,41,17.70
2008,02,05,12,42,13.50
2008,02,05,12,43,16.80
2008,02,05,12,44,15.40
2008,02,05,12,45,14.90
2008,02,05,12,46,15.90
2008,02,05,12,47,20.30
2008,02,05,12,48,13.40
2008,02,05,12,49,16.60
2008,02,05,12,50,14.80
2008,02,05,12,51,16.20
2008,02,05,12,52,32.60
2008,02,05,12,53,22.50
2008,02,05,12,54,26.60
2008,02,05,12,55,27.40
2008,02,05,12,56,16.60
2008,02,05,12,57,25.80
2008,02,05,12,58,18.80
2008,02,05,12,59,30.00
2008,02,05,13,00,28.90
2008,02,05,13,01,36.30
2008,02,05,13,02,21.20
2008,02,05,13,03,20.80
2008,02,05,13,04,29.40
2008,02,05,13,05,14.60
2008,02,05,13,06,13.30
2008,02,05,13,07,15.50
2008,02,05,13,08,18.70
2008,02,05,13,09,13.40
2008,02,05,13,10,17.90
2008,02,05,13,11,10.60
2008,02,05,13,12,8.80
2008,02,05,13,13,12.60
2008,02,05,13,14,13.80
2008,02,05,13,15,15.50
2008,02,05,13,16,13.80
2008,02,05,13,17,11.50
2008,02,05,13,18,15.80
2008,02,05,13,19,20.90
2008,02,05,13,20,15.40
2008,02,05,13,21,13.10
2008,02,05,13,22,20.90
2008,02,05,13,23,22.20
2008,02,05,13,24,24.80
2008,02,05,13,25,15.90
2008,02,05,13,26,19.60
2008,02,05,13,27,10.90
2008,02,05,13,28,17.40
2008,02,05,13,29,24.30
2008,02,05,13,30,23.90
2008,02,05,13,31,18.20
2008,02,05,13,32,13.50
2008,02,05,13,33,22.40
2008,02,05,13,34,25.90
2008,02,05,13,35,18.60
2008,02,05,13,36,19.10
2008,02,05,13,37,23.50
2008,02,05,13,38,22.00
2008,02,05,13,39,17.30
2008,02,05,13,40,21.60
2008,02,05,13,41,22.50
2008,02,05,13,42,28.60
2008,02,05,13,43,24.50
2008,02,05,13,44,24.60
2008,02,05,13,45,15.00
2008,02,05,13,46,16.70
2008,02,05,13,47,23.60
2008,02,05,13,48,22.00
2008,02,05,13,49,26.90
2008,02,05,13,50,28.10
2008,02,05,13,51,19.20
2008,02,05,13,52,18.70
2008,02,05,13,53,14.50
2008,02,05,13,54,25.80
2008,02,05,13,55,22.70
2008,02,05,13,56,18.80
2008,02,05,13,57,12.50
2008,02,05,13,58,26.80
2008,02,05,13,59,13.50
2008,02,05,14,00,20.10
2008,02,05,14,01,17.30
2008,02,05,14,02,17.90
2008,02,05,14,03,20.40
2008,02,05,14,04,23.10
2008,02,05,14,05,27.70
2008,02,05,14,06,28.20
2008,02,05,14,07,25.10
2008,02,05,14,08,28.90
2008,02,05,14,09,35.00
2008,02,05,14,10,34.60
2008,02,05,14,11,34.50
2008,02,05,14,12,38.50
2008,02,05,14,13,39.00
2008,02,05,14,14,36.30
2008,02,05,14,15,37.40
2008,02,05,14,16,28.40
2008,02,05,14,17,16.50
2008,02,05,14,18,18.50
2008,02,05,14,19,30.70
2008,02,05,14,20,22.80
2008,02,05,14,21,17.30
2008,02,05,14,22,21.90
2008,02,05,14,23,23.20
2008,02,05,14,24,29.70
2008,02,05,14,25,21.30
2008,02,05,14,26,17.10
2008,02,05,14,27,15.70
2008,02,05,14,28,23.50
2008,02,05,14,29,18.60
2008,02,05,14,30,30.30
2008,02,05,14,31,29.20
2008,02,05,14,32,23.00
2008,02,05,14,33,40.40
2008,02,05,14,34,44.50
2008,02,05,14,35,31.50
2008,02,05,14,36,23.10
2008,02,05,14,37,18.00
2008,02,05,14,38,25.00
2008,02,05,14,39,23.30
2008,02,05,14,40,30.90
2008,02,05,14,41,24.90
2008,02,05,14,42,22.40
2008,02,05,14,43,22.20
2008,02,05,14,44,21.60
2008,02,05,14,45,25.40
2008,02,05,14,46,22.40
2008,02,05,14,47,13.80
2008,02,05,14,48,18.80
2008,02,05,14,49,15.80
2008,02,05,14,50,22.70
2008,02,05,14,51,23.70
2008,02,05,14,52,19.20
2008,02,05,14,53,22.70
2008,02,05,14,54,19.70
2008,02,05,14,55,24.50
2008,02,05,14,56,17.50
2008,02,05,14,57,16.90
2008,02,05,14,58,18.00
2008,02,05,14,59,17.50
2008,02,05,15,00,18.60
2008,02,05,15,01,20.30
2008,02,05,15,02,13.70
2008,02,05,15,03,21.30
2008,02,05,15,04,15.80
2008,02,05,15,05,24.60
2008,02,05,15,06,43.20
2008,02,05,15,07,31.60
2008,02,05,15,08,32.00
2008,02,05,15,09,23.80
2008,02,05,15,10,23.60
2008,02,05,15,11,29.10
2008,02,05,15,12,39.80
2008,02,05,15,13,22.00
2008,02,05,15,14,19.30
2008,02,05,15,15,29.60
2008,02,05,15,16,24.20
2008,02,05,15,17,20.20
2008,02,05,15,18,27.20
2008,02,05,15,19,38.20
2008,02,05,15,20,30.30
2008,02,05,15,21,24.60
2008,02,05,15,22,39.50
2008,02,05,15,23,30.70
2008,02,05,15,24,18.00
2008,02,05,15,25,24.00
2008,02,05,15,26,24.80
2008,02,05,15,27,21.20
2008,02,05,15,28,14.30
2008,02,05,15,29,27.20
2008,02,05,15,30,27.40
2008,02,05,15,31,32.20
2008,02,05,15,32,28.50
2008,02,05,15,33,26.80
2008,02,05,15,34,26.20
2008,02,05,15,35,34.60
2008,02,05,15,36,32.40
2008,02,05,15,37,22.80
2008,02,05,15,38,40.50
2008,02,05,15,39,41.60
2008,02,05,15,40,27.00
2008,02,05,15,41,35.40
2008,02,05,15,42,28.10
2008,02,05,15,43,31.00
2008,02,05,15,44,23.20
2008,02,05,15,45,27.30
2008,02,05,15,46,25.80
2008,02,05,15,47,22.40
2008,02,05,15,48,19.80
2008,02,05,15,49,28.60
2008,02,05,15,50,24.10
2008,02,05,15,51,13.40
2008,02,05,15,52,13.90
2008,02,05,15,53,20.60
2008,02,05,15,54,22.40
2008,02,05,15,55,20.20
2008,02,05,15,56,17.20
2008,02,05,15,57,11.60
2008,02,05,15,58,16.80
2008,02,05,15,59,18.00
2008,02,05,16,00,18.20
2008,02,05,16,01,17.20
2008,02,05,16,02,20.70
2008,02,05,16,03,13.00
2008,02,05,16,04,18.00
2008,02,05,16,05,14.70
2008,02,05,16,06,16.90
2008,02,05,16,07,12.90
2008,02,05,16,08,18.30
2008,02,05,16,09,31.40
2008,02,05,16,10,38.40
2008,02,05,16,11,30.50
2008,02,05,16,12,31.70
2008,02,05,16,13,40.10
2008,02,05,16,14,32.00
2008,02,05,16,15,29.20
2008,02,05,16,16,25.10
2008,02,05,16,17,19.80
2008,02,05,16,18,25.40
2008,02,05,16,19,24.60
2008,02,05,16,20,21.40
2008,02,05,16,21,15.30
2008,02,05,16,22,14.10
2008,02,05,16,23,14.30
2008,02,05,16,24,15.80
2008,02,05,16,25,18.00
2008,02,05,16,26,25.30
2008,02,05,16,27,14.80
2008,02,05,16,28,12.20
2008,02,05,16,29,12.60
2008,02,05,16,30,15.60
2008,02,05,16,31,24.10
2008,02,05,16,32,15.80
2008,02,05,16,33,19.60
2008,02,05,16,34,25.50
2008,02,05,16,35,17.60
2008,02,05,16,36,16.50
2008,02,05,16,37,15.70
2008,02,05,16,38,9.60
2008,02,05,16,39,21.70
2008,02,05,16,40,16.50
2008,02,05,16,41,18.30
2008,02,05,16,42,16.30
2008,02,05,16,43,25.40
2008,02,05,16,44,22.40
2008,02,05,16,45,27.30
2008,02,05,16,46,31.60
2008,02,05,16,47,29.90
2008,02,05,16,48,21.00
2008,02,05,16,49,20.70
2008,02,05,16,50,19.10
2008,02,05,16,51,17.40
2008,02,05,16,52,22.90
2008,02,05,16,53,21.60
2008,02,05,16,54,16.40
2008,02,05,16,55,28.70
2008,02,05,16,56,19.80
2008,02,05,16,57,26.90
2008,02,05,16,58,20.20
2008,02,05,16,59,26.00
2008,02,05,17,00,25.70
2008,02,05,17,01,17.10
2008,02,05,17,02,21.40
2008,02,05,17,03,23.40
2008,02,05,17,04,22.60
2008,02,05,17,05,24.60
2008,02,05,17,06,22.50
2008,02,05,17,07,15.40
2008,02,05,17,08,22.50
2008,02,05,17,09,31.60
2008,02,05,17,10,27.40
2008,02,05,17,11,26.60
2008,02,05,17,12,17.30
2008,02,05,17,13,22.00
2008,02,05,17,14,28.90
2008,02,05,17,15,29.90
2008,02,05,17,16,23.50
2008,02,05,17,17,27.30
2008,02,05,17,18,32.40
2008,02,05,17,19,29.10
2008,02,05,17,20,23.70
2008,02,05,17,21,25.10
2008,02,05,17,22,20.50
2008,02,05,17,23,22.40
2008,02,05,17,24,33.60
2008,02,05,17,25,25.20
2008,02,05,17,26,27.90
2008,02,05,17,27,32.90
2008,02,05,17,28,25.50
2008,02,05,17,29,24.70
2008,02,05,17,30,23.40
2008,02,05,17,31,18.40
2008,02,05,17,32,20.70
2008,02,05,17,33,26.20
2008,02,05,17,34,33.90
2008,02,05,17,35,29.60
2008,02,05,17,36,26.90
2008,02,05,17,37,31.10
2008,02,05,17,38,23.90
2008,02,05,17,39,37.20
2008,02,05,17,40,30.10
2008,02,05,17,41,22.20
2008,02,05,17,42,21.90
2008,02,05,17,43,24.40
2008,02,05,17,44,26.20
2008,02,05,17,45,31.90
2008,02,05,17,46,31.70
2008,02,05,17,47,32.80
2008,02,05,17,48,25.90